Lapse_Rate
5.9 5.6 5.5 6.1 5.9 5.7 5.6 5.5 5.9 5.7 5.8 5.6 5.3 5.4 5.5 5.4 5.5 5.7 5.0 5.6 5.2 5.5 5.6 5.2 5.0 5.1 5.0 5.1 5.1 5.2 5.0 5.2 5.1 5.1 4.9 4.9 4.9 5.1 5.1 5.1 4.9 4.9 5.2 5.1 5.1 5.0 5.0 5.2 5.2
6.1 6.0 5.9 6.0 5.8 6.0 5.9 5.7 5.6 5.7 6.0 6.0 5.8 5.5 5.7 5.8 5.8 5.8 5.6 5.1 5.3 5.5 5.4 5.2 5.2 5.3 5.4 5.4 5.3 5.4 5.0 5.2 5.1 5.2 4.9 5.2 5.1 4.8 5.0 5.0 4.7 5.0 5.2 5.1 5.1 5.0 5.0 5.1 5.0
6.0 6.1 5.9 6.0 5.8 5.8 5.6 5.9 5.7 6.2 6.4 6.3 6.2 6.0 5.8 5.8 6.0 5.6 5.6 5.5 5.1 5.5 5.6 5.4 5.2 5.3 5.5 5.5 5.6 5.4 5.2 5.2 4.9 5.0 4.8 5.1 5.3 4.8 5.0 5.0 4.9 4.8 4.9 4.9 5.1 5.0 5.0 5.0 5.1
6.0 5.6 5.9 5.8 5.9 6.0 6.1 6.0 6.5 6.9 6.7 6.7 6.8 6.5 5.8 6.0 5.8 5.6 5.5 5.4 5.4 5.5 5.8 5.5 5.2 5.4 5.5 5.4 5.7 5.5 5.4 5.3 5.2 5.0 5.0 5.1 5.3 5.0 5.0 5.1 5.2 5.0 5.0 5.1 5.0 5.0 5.1 5.1 5.2
6.4 5.8 6.0 6.1 6.2 6.5 6.5 6.6 6.6 7.1 7.1 6.8 6.7 6.8 6.0 5.7 5.4 5.3 5.7 5.7 5.7 5.6 5.7 6.0 5.5 5.6 5.7 5.6 5.6 5.5 5.5 5.6 5.2 5.1 5.3 5.2 5.3 5.2 5.0 5.0 5.1 4.9 4.8 4.9 5.2 5.3 5.3 5.2 4.8
6.5 6.5 6.3 6.1 6.2 6.5 6.9 6.9 6.8 7.0 7.0 7.1 6.9 6.5 6.3 5.7 5.4 5.3 5.5 5.7 5.3 5.7 6.1 6.5 5.6 5.7 5.7 5.7 5.7 5.7 5.4 5.6 5.3 5.5 5.6 5.5 5.2 5.2 5.1 5.2 5.3 5.2 5.1 5.1 5.1 5.2 5.2 5.2 5.3
7.0 6.7 6.4 6.6 6.5 7.0 7.2 6.9 6.8 7.3 7.2 7.2 7.2 6.9 6.7 5.8 5.2 5.7 5.7 5.9 5.6 6.1 6.0 6.4 6.0 5.8 5.7 5.7 5.8 5.7 5.5 5.5 5.2 5.4 5.6 5.6 5.6 5.4 5.3 5.3 5.5 5.5 5.2 5.1 5.1 5.2 5.3 5.4 5.2
7.1 6.8 6.5 6.7 6.9 7.0 7.0 6.6 7.1 7.0 7.3 7.3 7.1 7.4 7.2 6.6 5.5 5.3 5.9 5.7 6.4 6.2 6.5 6.3 6.1 6.0 5.8 5.8 5.8 5.7 5.5 5.5 5.5 5.5 5.5 5.5 5.5 5.4 5.3 5.3 5.5 5.6 5.4 5.2 5.2 5.2 5.1 5.3 5.3
7.3 7.3 6.9 6.6 6.7 7.2 6.8 7.0 7.4 7.2 7.3 7.1 7.2 7.3 7.3 6.9 6.0 6.1 6.4 6.7 6.6 6.7 6.7 6.6 6.2 6.0 5.7 5.7 5.8 5.7 5.6 5.6 5.5 5.5 5.4 5.5 5.5 5.5 5.3 5.4 5.4 5.2 5.3 5.3 5.4 5.3 5.4 4.9 5.1
7.3 7.5 7.1 7.0 7.1 7.4 7.1 7.4 7.6 7.5 7.4 7.5 7.3 7.2 7.3 7.3 6.6 6.6 6.8 7.1 6.9 7.0 6.9 6.4 6.0 5.9 5.6 5.7 5.8 5.6 5.6 5.6 5.6 5.7 5.5 5.5 5.5 5.4 5.1 5.3 5.4 5.1 5.1 5.1 5.2 5.3 5.3 5.1 5.0
7.3 7.4 7.3 7.0 6.8 7.0 7.0 7.4 7.6 7.5 7.3 7.1 7.3 7.8 7.7 7.6 7.4 7.1 7.1 7.0 7.2 6.7 6.4 6.2 6.0 6.0 5.9 5.8 5.7 5.4 5.4 5.7 5.6 5.4 5.3 5.3 5.3 5.3 5.2 5.1 5.0 5.1 5.2 5.3 5.1 5.2 5.4 5.3 5.2
7.3 7.5 7.6 7.2 6.5 6.9 7.0 7.3 7.5 7.0 7.1 7.5 6.7 7.5 7.6 7.5 7.3 7.6 7.0 7.4 7.4 7.0 6.4 6.3 6.1 5.9 6.0 5.8 5.6 5.4 5.5 5.4 5.4 5.3 5.3 5.2 5.2 5.1 5.0 5.1 5.1 5.2 5.3 5.0 5.3 5.2 5.3 5.4 5.1
7.4 7.4 7.3 7.0 7.3 7.2 7.0 6.8 7.0 6.6 6.8 7.4 7.2 7.0 7.2 7.2 7.0 7.2 7.3 7.3 7.2 6.7 6.2 6.0 6.0 6.0 5.9 5.6 5.6 5.6 5.3 5.2 5.2 5.1 5.3 5.3 5.5 5.2 5.3 5.4 5.5 5.2 5.2 5.2 5.0 5.1 5.2 5.1 5.0
6.9 7.4 7.0 6.9 7.1 7.0 7.0 6.8 6.6 6.5 6.7 6.9 7.1 7.1 6.9 7.0 7.0 7.0 7.1 7.0 6.8 6.1 5.8 5.8 5.6 5.7 5.9 5.7 5.4 5.4 5.2 5.1 5.3 5.3 5.2 5.4 5.7 5.7 5.6 5.3 5.4 5.1 5.2 5.0 5.0 5.1 5.3 5.3 5.2
7.4 7.1 6.8 6.7 7.0 7.3 7.2 7.0 6.7 6.6 6.6 6.3 6.5 6.7 6.7 6.5 6.9 6.9 6.8 6.5 6.3 5.9 5.5 5.4 5.4 5.5 5.6 5.6 5.6 5.5 5.3 5.2 5.5 5.3 5.5 5.6 5.8 5.7 5.6 5.3 5.2 5.4 5.3 5.1 5.2 5.3 5.3 5.3 5.3
7.7 7.0 6.1 6.2 7.4 7.2 7.2 7.0 6.9 6.6 6.4 6.4 6.1 6.3 6.3 6.6 6.4 6.6 6.4 6.1 6.5 5.8 5.4 5.5 5.5 5.7 5.9 5.9 5.7 5.5 5.4 5.6 5.3 5.4 5.5 5.8 5.8 5.7 5.8 5.5 5.5 5.6 5.6 5.7 5.6 5.4 5.4 5.5 5.4
7.5 6.8 6.1 7.0 7.4 7.3 7.0 7.2 6.7 6.5 6.3 6.2 6.4 6.2 6.2 5.9 5.8 6.1 6.2 5.9 5.9 5.7 5.4 5.2 5.6 6.0 5.9 5.9 5.7 5.4 5.4 5.3 5.1 5.2 5.3 6.0 5.6 5.8 5.8 5.7 5.8 5.6 5.6 5.8 5.9 5.8 5.9 5.8 5.8
8.1 7.4 7.5 7.6 7.3 7.2 7.5 7.4 7.0 6.7 6.4 6.2 6.5 6.4 6.7 6.4 6.0 5.9 6.1 5.9 5.8 5.7 5.6 5.6 5.9 6.1 6.1 6.1 5.9 5.9 5.5 5.2 5.0 5.1 5.6 5.7 5.6 5.9 6.0 5.8 5.8 5.8 5.8 5.9 5.8 6.0 6.1 6.2 6.3
8.2 8.0 7.9 7.8 7.1 6.8 7.4 7.4 7.7 7.2 6.9 6.5 6.3 6.4 6.5 6.5 6.3 6.1 5.9 5.9 5.8 5.8 5.8 5.8 5.9 6.0 6.0 6.1 6.0 5.8 5.5 5.4 5.3 5.5 5.6 5.6 5.8 6.0 6.1 6.0 5.8 5.9 5.8 6.1 6.1 6.2 6.2 6.5 6.3
8.2 8.1 7.9 7.7 7.0 7.0 6.6 6.6 6.8 7.2 7.6 7.0 6.4 6.2 6.4 6.4 6.2 6.5 6.2 5.9 6.0 5.9 6.1 6.0 6.1 6.2 5.9 5.9 5.7 5.8 5.8 5.7 5.6 5.8 5.9 5.3 5.8 5.9 6.2 6.3 5.9 5.8 5.9 6.3 6.2 6.3 6.4 6.5 6.3
8.8 8.9 8.6 8.2 7.6 7.3 6.7 6.5 6.4 6.9 6.8 7.4 7.4 6.6 6.2 6.3 6.4 6.7 6.9 6.4 6.1 6.2 6.1 5.7 5.6 5.7 5.7 5.7 5.9 6.0 6.1 5.7 5.8 5.8 5.7 5.6 6.0 6.3 6.2 6.2 6.2 5.9 6.0 6.1 6.3 6.2 6.3 6.3 6.3
9.2 9.3 8.9 8.5 8.0 7.7 7.7 7.4 6.9 7.0 7.4 6.7 6.8 6.6 6.4 6.0 6.2 6.5 6.8 7.0 6.6 6.4 6.2 6.0 5.9 6.0 6.0 6.0 6.1 6.1 6.1 5.8 5.7 5.9 5.6 5.7 6.2 6.4 6.4 6.3 6.4 6.3 6.3 6.3 6.3 6.3 6.5 6.4 6.3
8.9 9.2 9.1 8.6 8.0 7.6 7.6 7.6 7.2 7.2 7.5 7.4 7.2 7.3 7.0 6.4 5.9 6.2 6.4 6.7 6.5 6.6 6.5 6.3 6.1 6.3 6.3 6.2 6.1 6.3 6.2 5.8 6.1 6.0 5.6 5.9 6.3 6.3 6.3 6.4 6.6 6.6 6.5 6.6 6.2 6.4 6.8 6.6 6.5
8.6 8.9 8.6 7.8 7.3 7.2 7.4 7.1 6.8 6.9 7.3 7.5 7.7 7.4 7.3 6.9 6.3 6.1 6.2 6.3 6.6 6.4 6.7 6.6 6.2 6.1 6.3 6.4 6.4 6.4 6.5 6.1 6.0 5.8 6.0 6.2 6.3 6.2 6.2 6.4 6.5 6.6 6.5 6.5 6.2 6.1 6.6 6.8 6.6
9.0 9.1 8.2 6.8 6.3 6.3 7.1 7.2 7.0 6.8 7.1 7.5 8.0 7.9 7.7 7.4 6.8 6.5 6.2 6.2 6.4 6.8 6.8 6.8 6.4 6.1 6.2 6.4 6.4 6.4 6.3 6.1 6.2 6.4 6.5 6.1 6.1 6.3 6.3 6.5 6.4 6.2 6.0 5.9 6.3 6.3 6.6 6.6 6.5
9.0 9.2 8.9 7.9 6.0 6.6 6.9 6.6 6.9 7.4 7.2 7.0 8.0 7.8 8.4 7.9 6.9 6.8 6.5 6.4 6.3 6.5 6.9 6.9 6.7 6.5 6.2 6.2 6.4 6.3 6.3 6.3 6.2 6.4 6.4 6.2 6.3 6.3 6.4 6.6 6.5 6.1 6.2 6.1 6.5 6.5 6.6 6.6 6.5
8.7 9.0 9.1 8.1 6.9 7.0 6.6 7.1 7.7 7.9 7.5 7.6 7.1 7.6 8.1 7.3 7.3 6.9 6.7 6.8 6.6 6.3 6.8 7.1 7.0 6.7 6.4 6.3 6.4 6.4 6.4 6.5 6.3 6.4 6.3 6.4 6.4 6.3 6.5 6.6 6.5 6.3 6.2 6.5 6.5 6.7 6.6 6.5 6.6
9.1 9.1 9.0 8.7 6.2 5.9 6.6 7.0 7.8 8.2 8.2 6.9 7.2 7.8 7.9 7.8 7.8 7.5 7.1 7.1 7.0 6.6 6.6 6.7 7.0 6.8 6.6 6.5 6.5 6.7 6.6 6.6 6.5 6.7 6.7 6.7 6.6 6.6 6.6 6.5 6.4 6.4 6.2 6.2 6.2 6.2 6.1 6.1 6.1
9.1 9.1 8.9 8.9 8.1 6.0 5.5 7.2 8.1 8.4 8.1 7.6 6.7 6.4 6.8 7.3 7.7 7.9 7.9 7.7 7.2 7.0 6.8 7.0 7.0 7.1 6.8 6.6 6.6 6.8 6.8 6.6 6.5 6.5 6.7 6.6 6.6 6.6 6.7 6.5 6.3 6.3 6.3 6.3 6.2 6.1 5.9 5.7 5.9
9.2 9.2 9.1 9.2 7.7 7.7 7.5 7.6 7.9 7.8 7.5 8.0 7.7 7.4 7.3 7.6 7.8 7.8 7.9 8.1 8.0 7.2 6.9 6.8 7.0 7.2 7.1 6.9 6.7 6.5 6.8 6.8 6.6 6.5 6.5 6.5 6.4 6.3 6.2 6.3 6.3 6.2 6.1 6.1 6.3 6.0 5.9 5.9 5.7
Wind_Speed
8 8 2 1 1 2 2 3 3 6 4 2 8 3 6 5 1 3 2 10 5 5 11 12 15 15 16 18 18 18 19 21 20 20 20 20 19 19 19 19 16 14 14 15 12 12 13 12 13
8 4 1 1 2 3 2 3 4 3 6 10 8 6 6 4 4 8 7 5 6 8 11 10 17 15 16 17 18 17 17 19 18 19 18 19 18 16 18 17 13 14 13 14 12 11 11 12 11
8 4 1 0 2 2 3 2 6 10 8 4 5 6 3 3 7 11 6 7 6 6 11 12 15 16 15 18 16 17 16 16 15 17 16 18 17 13 14 15 11 11 14 13 12 12 11 10 8
3 3 2 1 2 1 4 8 7 10 8 8 12 8 5 10 7 5 12 11 7 7 10 14 15 15 15 16 16 16 15 15 14 15 15 14 13 13 11 14 11 10 11 10 11 11 9 8 7
2 2 2 1 4 4 10 8 2 3 5 9 4 6 7 3 12 14 10 8 7 6 12 14 14 14 14 14 15 14 13 14 13 12 12 11 11 11 9 9 10 8 7 7 7 9 9 9 5
2 2 3 3 5 5 7 6 6 11 11 13 11 8 3 9 15 9 9 7 9 7 10 12 13 13 12 12 14 13 12 13 11 11 11 10 8 8 7 7 9 7 6 7 5 5 6 7 6
4 3 1 1 6 3 6 6 4 11 11 6 6 5 2 7 11 10 8 7 9 12 11 10 11 12 11 11 11 12 11 11 10 9 10 9 8 7 6 6 6 6 4 5 5 4 3 4 5
3 3 1 4 3 4 9 5 9 9 7 10 9 3 6 8 12 8 5 8 7 6 7 9 10 9 9 9 11 12 11 11 10 9 8 6 6 5 4 4 3 3 3 3 4 2 2 2 2
1 4 3 2 4 3 10 8 7 7 10 3 3 6 9 13 11 8 6 5 5 5 5 7 8 10 9 9 9 11 12 10 10 8 7 6 5 5 6 6 6 5 5 5 4 4 3 4 3
4 4 2 1 2 8 14 7 9 8 10 3 9 11 14 15 12 9 10 9 9 7 6 5 7 7 11 7 8 10 9 8 8 7 7 7 7 8 8 8 8 6 9 7 6 5 5 5 4
3 2 3 3 2 11 7 9 5 16 2 5 20 17 17 15 11 11 11 11 11 9 6 7 6 9 8 7 10 10 8 8 8 8 8 8 6 9 8 9 5 3 2 4 2 1 6 4 4
3 5 3 5 1 9 9 7 9 4 3 14 16 17 19 16 14 14 11 9 9 8 8 6 7 7 10 9 8 9 8 8 9 11 9 11 7 5 9 7 7 9 5 4 3 3 5 7 7
3 6 6 13 11 7 7 7 7 4 12 14 16 16 17 15 14 12 10 9 6 8 8 8 6 6 10 7 8 9 7 8 11 11 12 13 6 4 6 7 7 3 8 7 4 3 4 4 6
3 9 21 12 9 6 5 8 7 5 14 16 17 16 14 16 15 9 9 10 11 10 10 8 9 9 10 7 9 7 9 10 12 11 13 12 8 7 5 4 2 4 9 7 5 3 4 4 7
13 10 17 13 14 4 11 3 5 15 15 16 16 16 12 15 14 15 14 12 11 9 10 11 10 10 7 6 8 7 11 12 9 12 14 12 12 9 9 5 3 6 7 5 4 3 3 3 4
7 8 8 13 13 6 5 3 6 13 17 14 12 13 13 12 14 13 14 14 13 10 10 9 10 10 8 6 6 9 10 9 10 12 12 10 13 12 8 3 4 6 5 4 2 2 2 2 1
5 7 4 8 4 4 2 4 8 11 14 13 12 11 12 12 12 10 10 13 12 10 9 9 10 10 9 7 7 8 8 3 6 8 9 9 10 8 4 5 5 1 3 3 3 2 2 2 2
6 8 10 12 4 3 7 5 11 12 12 13 11 9 11 12 15 13 12 13 13 10 9 8 7 8 8 5 2 4 2 2 2 5 8 9 7 7 6 2 1 5 3 3 2 3 1 2 2
6 15 14 9 9 1 3 13 19 12 13 8 8 8 9 12 15 10 11 13 12 9 10 9 8 7 6 2 3 2 3 1 1 6 9 7 4 4 4 2 5 4 3 4 4 3 3 2 2
5 6 6 4 7 3 1 4 3 8 9 8 7 8 8 6 5 6 11 12 15 14 13 11 11 7 7 3 2 2 2 2 2 3 6 7 7 5 3 4 4 4 3 3 4 3 2 1 2
4 7 9 6 8 3 5 1 3 2 4 9 7 7 9 7 8 8 12 13 13 13 14 13 12 11 7 6 2 1 3 2 2 1 2 6 9 7 7 6 5 3 3 3 2 2 3 2 2
5 12 11 11 10 3 4 2 2 4 8 4 5 1 1 4 7 6 10 12 14 15 12 12 10 9 8 7 4 4 4 3 3 3 3 4 8 8 10 8 7 5 2 3 1 2 1 2 2
7 12 11 5 6 6 6 4 5 5 6 7 3 4 5 4 6 9 11 12 14 13 12 10 10 9 8 7 7 5 4 3 1 1 3 3 3 6 10 9 7 4 3 2 3 2 1 1 2
9 8 9 6 4 2 3 4 4 3 6 6 7 6 7 6 7 11 9 11 10 9 10 11 12 11 9 8 8 8 8 6 3 3 4 3 3 3 7 7 7 5 4 4 3 2 2 2 2
5 5 3 3 1 4 2 4 6 5 10 9 12 10 11 7 7 10 12 12 13 13 12 10 11 13 11 9 8 8 8 7 7 6 4 5 3 3 5 5 5 4 6 6 5 4 3 3 2
0 7 5 3 3 3 1 2 5 13 7 9 8 8 12 9 7 7 11 15 14 15 13 13 12 10 11 10 11 8 8 5 5 5 5 4 4 4 5 6 7 7 7 6 6 3 3 3 3
3 3 4 8 3 4 3 5 8 11 12 13 7 8 17 3 4 6 6 13 13 13 16 16 14 12 9 14 9 8 7 7 7 7 5 4 5 4 6 6 6 6 7 7 5 4 5 5 4
3 7 3 3 5 3 4 5 5 7 1 6 12 8 2 2 5 8 8 10 14 14 14 13 14 16 15 13 10 9 10 8 7 6 7 6 6 6 5 6 7 6 6 6 6 5 4 5 4
4 1 7 6 4 5 4 5 7 12 6 1 9 4 5 6 4 5 7 9 15 15 15 16 14 13 11 11 11 9 8 8 7 7 7 7 6 6 6 7 7 7 7 7 6 6 5 6 5
3 4 5 5 3 3 4 5 4 8 9 8 12 5 3 5 4 5 6 7 12 16 15 15 14 12 12 12 8 9 8 6 8 9 9 7 7 6 6 7 7 8 8 7 8 7 6 6 6
Wind_Direction
157 147 150 204 341 48 356 67 80 102 124 331 154 101 119 42 91 168 125 154 150 141 154 131 121 116 113 107 104 105 107 106 106 108 106 102 103 105 103 97 96 96 103 102 103 108 110 108 113
150 145 197 266 83 107 342 90 119 167 115 99 77 79 55 73 68 109 118 172 144 138 140 144 122 120 117 112 111 109 106 108 108 107 106 107 106 108 107 105 99 102 106 104 105 105 104 105 112
166 214 316 220 136 120 158 109 128 128 156 104 109 54 67 84 111 143 134 117 110 120 140 146 132 127 120 117 114 111 112 113 114 112 110 106 107 104 109 107 104 99 103 106 108 110 106 109 117
203 27 348 293 150 115 126 133 138 138 104 71 116 77 74 116 134 152 133 129 125 129 153 143 136 131 125 120 117 117 121 123 123 119 116 114 112 111 112 109 104 101 107 117 115 115 116 118 127
62 120 77 353 40 120 110 112 147 32 82 113 112 88 100 97 105 124 127 134 138 147 146 141 137 132 127 126 121 120 125 121 123 126 124 124 122 122 122 112 113 109 106 97 94 101 104 103 104
80 119 52 60 78 82 100 104 95 87 86 104 96 89 78 123 128 137 136 148 148 139 127 138 139 138 135 132 126 125 130 127 131 137 136 137 134 133 140 135 128 132 132 123 108 87 86 90 90
106 74 90 13 111 96 121 113 118 123 109 82 120 80 93 137 145 143 147 140 150 149 144 147 147 146 146 140 140 140 141 136 144 152 149 151 154 164 167 161 151 151 157 149 140 130 107 98 95
101 89 64 31 130 110 140 123 141 109 74 111 149 144 167 174 154 149 165 147 146 147 142 154 150 146 150 155 163 159 161 156 173 170 167 165 173 186 188 190 207 188 194 199 170 181 181 157 116
181 61 53 48 143 163 145 136 183 98 134 131 132 124 151 157 150 153 152 141 130 167 158 157 153 162 161 180 180 177 177 174 185 182 179 193 197 220 222 216 212 233 226 230 232 215 231 218 124
62 62 249 310 34 144 145 159 137 126 162 65 102 102 136 152 161 156 164 172 171 178 182 174 163 174 178 187 209 195 189 194 204 210 212 216 225 233 237 246 244 239 243 241 234 242 244 254 141
137 143 324 342 231 140 141 134 117 141 207 193 151 143 144 157 174 178 185 181 182 181 184 181 169 177 188 211 206 206 207 214 223 231 235 245 254 263 269 257 256 247 250 231 129 177 288 241 177
17 239 235 302 56 128 156 151 138 196 228 149 146 145 152 168 183 189 185 190 180 184 195 177 180 175 197 217 205 214 215 218 230 232 238 246 248 250 236 227 225 217 213 224 178 166 238 261 207
315 334 355 336 295 168 159 166 148 218 128 138 141 158 167 174 192 195 186 185 194 197 198 192 180 187 198 202 212 225 227 222 233 234 236 234 225 214 197 218 231 216 207 210 215 194 240 274 231
50 360 355 326 302 234 165 152 131 140 142 149 155 167 174 183 196 189 193 196 196 196 203 193 198 194 195 199 209 213 225 233 239 246 244 247 204 204 217 220 225 213 212 225 200 195 225 229 213
49 23 20 355 353 96 107 91 148 151 158 162 173 177 176 189 190 195 198 203 199 200 195 196 197 194 197 203 219 213 229 232 232 243 245 234 206 208 216 211 216 246 241 238 227 219 200 206 194
80 54 350 319 320 331 66 228 152 158 162 177 186 187 184 195 204 204 197 203 192 195 194 191 198 197 202 208 208 238 228 229 234 235 236 214 218 214 211 238 246 255 231 212 209 196 162 154 151
200 151 118 288 209 259 130 139 180 165 175 182 188 197 201 202 202 214 204 193 203 184 172 184 193 193 196 209 213 233 230 232 234 214 204 202 217 215 222 245 267 203 154 152 146 111 109 160 225
184 117 139 242 231 210 161 151 152 175 189 190 193 205 203 207 215 201 200 194 192 182 175 178 189 193 184 192 194 251 259 337 189 218 212 215 236 215 231 268 143 137 123 121 125 125 133 168 185
190 145 168 227 232 266 264 161 170 160 171 178 200 199 211 217 222 197 187 190 181 168 167 176 181 187 164 161 188 239 217 203 278 227 224 235 230 212 202 194 138 147 140 154 157 133 170 185 136
212 157 193 179 162 124 51 265 230 174 168 167 185 216 204 203 187 171 168 175 174 176 178 178 193 182 190 178 190 178 164 216 219 228 243 213 207 199 198 180 168 162 146 158 176 158 142 110 159
204 192 185 158 147 128 124 255 4 328 195 188 189 199 229 192 181 178 174 176 173 179 184 185 189 190 197 186 137 54 61 30 14 289 238 216 207 196 210 178 160 174 160 177 180 171 133 115 210
284 187 164 146 138 190 68 182 27 300 303 74 38 2 90 233 193 187 180 175 180 193 187 186 183 185 200 174 171 173 182 190 214 209 211 212 200 201 196 185 181 184 178 187 188 156 155 115 161
243 143 142 136 78 66 336 72 308 357 299 264 261 273 294 288 257 196 183 183 197 180 181 179 184 187 198 185 189 188 192 236 317 226 207 211 197 209 198 179 179 185 185 182 181 175 159 138 143
113 77 45 52 83 34 284 102 297 243 247 285 269 241 240 243 235 208 193 174 188 195 183 176 180 194 196 188 200 195 196 217 213 246 233 227 205 200 207 184 188 189 186 191 201 190 180 186 172
93 106 40 19 62 217 233 71 234 247 246 247 258 236 236 188 235 213 175 189 188 191 187 185 184 196 201 198 197 204 201 198 207 213 218 190 184 204 210 181 174 193 200 192 175 184 201 191 201
264 132 152 215 145 240 24 130 249 229 250 233 230 262 250 231 216 223 189 191 194 191 193 192 185 199 200 206 214 207 200 191 211 213 207 204 197 201 201 194 183 201 204 195 189 179 192 186 200
182 74 163 106 6 72 309 284 292 234 240 211 244 196 240 80 225 234 211 191 193 194 198 196 188 201 209 214 212 210 204 199 210 214 208 200 206 217 213 203 194 194 194 202 184 191 200 188 201
103 156 75 17 130 91 322 290 247 297 308 234 188 194 179 7 210 228 202 193 196 196 200 202 201 200 203 207 210 215 216 206 210 206 208 207 209 214 218 213 198 199 193 197 190 203 214 206 219
26 33 57 111 101 142 159 267 228 254 271 168 144 156 175 206 223 215 231 193 193 197 197 199 202 200 200 206 213 210 211 208 209 216 222 212 209 210 212 211 198 203 201 184 196 218 203 209 221
211 138 134 123 196 87 131 257 279 251 291 304 312 321 226 270 294 259 223 238 182 194 197 202 201 203 204 209 203 217 223 203 205 219 224 218 216 215 214 209 204 203 208 188 201 206 199 212 226